Lapse_Rate
8.0 7.8 7.8 7.8 7.9 7.6 7.4 7.3 7.3 7.2 7.1 7.0 6.8 6.7 6.4 6.2 5.9 5.6 5.5 5.7 5.6 5.5 5.5 5.5 5.5 5.6 5.6 5.7 5.6 5.6 5.4 5.3 5.4 5.3 5.3 5.6 5.8 5.9 6.2 6.6 6.6 6.6 6.6
7.4 7.8 8.0 7.8 7.9 7.7 7.5 7.4 7.3 7.2 7.1 7.1 7.0 6.7 6.6 6.3 6.0 5.7 5.6 5.7 5.7 5.6 5.5 5.4 5.5 5.5 5.6 5.6 5.6 5.6 5.4 5.3 5.2 5.2 5.2 5.5 5.9 6.4 6.5 6.6 6.6 6.5 6.4
7.8 8.1 8.2 8.0 7.9 7.8 7.6 7.4 7.4 7.2 7.0 7.0 7.0 6.9 6.9 6.6 6.2 5.9 5.6 5.7 5.7 5.6 5.5 5.4 5.4 5.4 5.4 5.4 5.5 5.6 5.4 5.3 5.1 5.1 5.3 5.7 6.0 6.1 6.2 6.3 6.5 6.5 6.5
8.1 8.1 8.1 8.0 7.9 7.9 7.7 7.5 7.4 7.3 7.1 7.0 7.0 6.9 7.0 6.9 6.6 6.2 5.9 5.9 5.8 5.7 5.5 5.4 5.3 5.3 5.3 5.3 5.4 5.5 5.4 5.3 5.1 5.2 5.4 5.7 5.9 6.0 6.1 6.1 6.2 6.4 6.5
8.0 8.2 8.2 7.9 7.8 7.8 7.8 7.6 7.4 7.3 7.1 7.0 7.0 7.0 7.0 7.0 6.9 6.5 6.1 6.0 5.9 5.8 5.7 5.6 5.4 5.4 5.3 5.4 5.5 5.6 5.6 5.3 5.2 5.4 6.1 6.0 5.9 6.2 6.3 6.3 6.4 6.4 6.6
7.9 8.2 8.1 8.0 7.9 7.8 7.8 7.6 7.4 7.2 7.0 7.1 7.0 7.0 6.9 6.8 6.8 6.7 6.4 6.3 6.1 5.9 5.7 5.6 5.5 5.4 5.4 5.5 5.6 5.7 5.6 5.3 5.2 5.8 6.1 6.1 6.1 5.7 6.1 6.5 6.3 6.4 6.6
7.8 8.1 7.9 7.9 7.8 7.7 7.7 7.6 7.4 7.2 7.1 7.2 7.1 7.0 6.9 6.8 6.6 6.5 6.4 6.4 6.3 6.2 6.2 5.9 5.7 5.6 5.6 5.6 5.6 5.6 5.6 5.4 5.3 5.7 6.0 6.0 6.2 6.0 6.1 6.2 6.1 6.3 6.5
7.6 7.9 8.0 7.8 7.7 7.7 7.7 7.6 7.4 7.2 7.1 7.2 7.1 6.9 6.9 6.8 6.7 6.5 6.4 6.3 6.4 6.4 6.3 6.1 6.0 6.0 5.9 5.7 5.6 5.5 5.5 5.5 5.4 6.0 6.0 5.8 6.1 6.0 6.2 6.2 6.3 6.1 6.4
7.5 7.7 8.0 7.9 7.8 7.7 7.7 7.7 7.6 7.3 7.1 7.2 7.1 7.0 6.9 6.8 6.7 6.6 6.5 6.4 6.4 6.4 6.3 6.3 6.2 6.1 6.0 5.9 5.8 5.6 5.5 5.6 5.4 5.8 6.1 5.8 5.8 5.6 6.3 6.2 6.3 6.4 6.4
7.1 7.5 7.7 7.7 7.7 7.6 7.6 7.7 7.6 7.5 7.3 7.2 7.2 7.1 7.0 6.9 6.9 6.8 6.7 6.5 6.5 6.5 6.5 6.5 6.3 6.3 6.3 6.2 6.0 5.9 5.8 5.7 5.4 5.4 6.1 6.1 6.3 5.8 6.2 6.1 6.4 6.6 6.4
7.1 7.2 7.4 7.7 7.4 7.5 7.5 7.6 7.6 7.5 7.4 7.3 7.3 7.3 7.2 7.0 6.9 6.9 6.8 6.7 6.6 6.7 6.7 6.7 6.7 6.5 6.5 6.5 6.4 6.2 6.0 5.7 5.5 5.3 5.8 6.5 6.2 6.0 6.0 6.1 6.1 6.3 6.3
7.1 7.3 7.4 7.5 7.4 7.3 7.5 7.5 7.5 7.4 7.4 7.4 7.4 7.4 7.3 7.2 7.1 7.2 7.1 7.0 7.0 6.9 6.8 6.9 6.8 6.7 6.6 6.5 6.5 6.4 6.2 5.9 5.5 5.7 5.8 6.1 6.0 5.8 6.2 6.5 6.3 6.3 6.3
6.4 6.3 7.2 7.4 7.6 7.4 7.3 7.7 7.5 7.4 7.5 7.5 7.4 7.5 7.4 7.3 7.3 7.3 7.3 7.2 7.0 7.1 6.9 6.9 6.9 7.0 6.8 6.7 6.6 6.6 6.5 6.3 5.8 6.1 6.2 6.3 6.0 6.0 5.9 6.3 6.1 6.3 6.3
6.8 6.4 6.3 7.1 7.6 7.8 7.6 7.5 7.5 7.7 7.8 7.6 7.5 7.6 7.6 7.4 7.4 7.4 7.5 7.4 7.2 7.0 7.2 7.0 7.1 6.9 7.0 6.9 6.9 6.9 6.5 6.4 6.2 6.3 6.3 6.2 6.1 5.8 5.9 6.2 6.1 6.3 6.3
6.5 6.1 6.1 6.6 7.1 7.4 7.6 7.5 7.5 7.6 7.9 7.7 7.6 7.7 7.6 7.5 7.6 7.6 7.6 7.6 7.4 7.3 7.3 7.3 7.2 7.1 7.1 7.1 6.9 7.0 6.8 6.5 6.2 6.2 6.2 6.2 6.2 6.0 6.0 6.0 6.1 6.1 6.1
5.9 5.8 5.9 6.3 6.7 7.1 7.4 7.3 7.3 7.4 7.8 7.6 7.7 7.9 7.8 7.7 7.6 7.5 7.7 7.6 7.7 7.6 7.4 7.3 7.3 7.4 7.3 7.1 7.1 7.0 6.8 6.7 6.5 6.2 6.4 6.1 6.1 6.1 5.9 6.1 6.0 5.9 6.0
5.6 5.6 5.6 5.6 5.9 7.2 7.3 6.9 6.8 6.8 6.5 7.1 7.1 7.3 7.6 7.7 7.6 7.5 7.6 7.5 7.7 7.6 7.7 7.5 7.5 7.6 7.5 7.4 7.3 7.1 7.0 6.8 6.7 6.5 6.4 6.2 6.1 5.9 5.8 6.0 6.1 5.9 5.9
5.3 5.6 5.8 5.7 6.1 6.6 6.9 6.9 7.0 6.8 6.0 6.5 5.8 6.6 7.4 7.8 7.7 7.5 7.6 7.8 7.5 7.6 7.8 8.0 7.7 7.6 7.5 7.4 7.3 7.3 7.1 7.1 7.0 6.8 6.6 6.7 6.3 6.0 5.9 6.0 6.1 6.0 6.0
5.2 5.8 6.1 6.1 6.0 6.0 6.0 6.1 6.6 6.5 6.5 6.7 6.7 7.4 7.6 7.7 7.6 7.5 7.6 7.7 7.6 7.2 7.4 8.0 7.9 7.7 7.5 7.4 7.4 7.1 7.2 7.1 7.1 7.0 6.9 6.8 6.7 6.4 6.0 6.2 6.2 6.0 5.8
5.5 6.2 6.2 6.2 6.0 6.2 6.1 5.9 6.0 6.7 7.1 7.0 6.6 6.6 6.8 7.1 7.5 7.5 7.3 7.5 7.3 7.2 7.0 7.4 7.9 8.0 7.7 7.4 7.3 7.3 7.1 7.2 7.1 7.2 7.0 6.9 6.9 6.7 6.4 6.4 6.2 6.0 5.9
5.6 6.3 6.1 5.9 6.1 6.3 6.3 6.0 6.0 6.2 6.6 6.7 6.8 6.5 7.1 7.3 7.1 7.2 7.3 7.3 7.5 7.3 7.3 6.9 7.2 7.6 7.9 7.5 7.4 7.1 7.3 7.4 7.2 7.2 7.2 7.2 7.0 6.9 6.7 6.6 6.4 6.3 6.1
5.9 6.7 6.2 6.2 6.1 6.3 6.3 6.2 6.1 5.9 6.2 6.5 6.6 6.6 6.5 6.5 6.8 6.9 7.1 7.7 7.1 7.5 7.2 7.4 6.8 7.4 7.5 7.8 7.3 7.1 7.1 7.5 7.5 7.4 7.2 7.1 6.9 7.0 7.1 6.8 6.6 6.4 6.4
6.5 6.9 6.6 6.4 6.1 6.0 6.2 6.2 6.2 6.1 6.2 6.2 6.3 6.4 6.4 6.4 6.8 6.7 6.9 6.9 6.8 6.9 6.0 6.5 7.0 7.0 7.0 7.4 7.5 7.4 7.2 7.5 7.5 7.4 7.4 7.2 7.0 7.0 7.2 7.1 7.0 6.8 6.5
6.9 7.0 6.9 6.6 6.2 6.0 5.8 6.0 6.2 6.4 6.4 6.3 6.4 6.3 6.3 6.2 6.2 6.3 6.4 6.9 6.8 6.7 6.3 6.2 6.2 6.6 6.6 6.8 7.3 7.2 7.4 7.3 7.5 7.4 7.5 7.4 7.2 7.1 7.2 7.2 7.2 6.8 6.5
7.3 7.2 7.0 6.7 6.4 6.2 6.1 6.1 6.1 6.2 6.4 6.8 6.7 6.5 6.4 6.3 6.2 6.2 6.1 6.1 6.4 6.7 6.7 6.2 6.1 6.2 6.6 6.9 6.8 7.6 7.2 7.5 7.3 7.2 7.5 7.7 7.4 7.3 7.3 7.3 7.2 6.9 6.4
7.8 7.6 7.4 6.7 6.4 6.3 6.4 6.3 6.4 6.5 6.5 6.5 6.6 6.8 6.9 6.8 6.8 6.6 6.4 6.1 6.1 6.1 6.5 6.8 6.5 6.7 7.2 7.3 7.2 7.1 7.1 7.6 7.8 7.3 7.4 7.6 7.5 7.2 7.4 7.6 7.3 7.0 6.7
Wind_Speed
4 10 17 17 16 17 18 19 19 18 17 16 16 16 16 16 18 18 17 18 18 17 17 15 11 9 8 8 8 9 10 11 11 13 13 15 14 15 16 18 17 17 19
12 11 19 19 18 17 18 19 19 19 18 17 17 17 16 15 16 17 16 16 15 15 14 12 10 7 5 5 5 6 8 11 11 10 11 12 12 12 13 14 17 17 18
11 12 13 19 18 17 17 18 19 19 18 17 17 17 18 16 16 16 15 14 13 12 11 9 7 5 4 2 3 3 5 8 8 10 11 11 11 11 9 6 17 19 17
12 13 11 15 18 17 16 17 18 19 19 18 18 17 18 17 17 17 16 15 13 11 11 8 7 5 4 2 2 3 5 7 6 9 10 8 12 12 9 18 18 17 16
11 15 14 15 16 16 15 16 17 18 19 18 18 18 18 18 18 17 16 14 13 13 13 10 7 6 6 5 5 5 6 6 5 4 2 7 9 12 13 15 17 19 18
12 16 20 19 16 15 14 16 17 18 19 20 19 18 18 17 17 17 16 14 11 11 11 8 8 7 5 6 6 5 6 5 3 6 6 6 6 10 14 15 14 16 17
8 9 18 21 18 16 15 15 17 19 21 20 19 19 19 18 17 18 17 16 13 12 11 9 7 6 5 4 4 3 4 5 5 10 7 5 6 4 9 16 16 15 17
10 8 11 15 18 16 16 16 17 18 19 19 19 18 19 19 19 18 18 17 15 13 12 11 9 9 7 6 4 3 3 4 9 10 6 2 3 5 13 15 18 15 17
8 7 9 12 13 17 18 18 18 18 19 20 19 19 18 19 19 19 18 18 17 16 14 12 11 10 9 8 7 5 4 4 3 11 5 7 8 12 15 17 18 18 17
10 9 9 9 10 9 10 15 17 18 18 19 20 19 19 19 18 18 19 18 17 16 14 12 10 10 9 8 8 6 5 3 3 5 8 16 19 21 20 17 19 20 19
4 9 9 10 10 10 10 11 13 16 16 17 17 19 17 12 14 15 16 18 18 17 15 13 12 11 10 10 9 8 6 5 5 5 13 14 21 15 12 19 18 20 21
6 7 10 10 11 10 10 11 11 11 10 11 11 12 12 13 13 14 16 20 21 19 16 14 14 14 12 10 11 11 9 8 6 9 13 20 15 11 11 18 19 21 22
8 5 7 10 10 11 9 8 8 8 8 9 12 12 11 12 13 13 11 15 13 18 11 12 11 11 11 10 9 9 10 10 8 12 17 15 13 15 17 20 20 21 20
6 9 8 8 9 8 5 6 5 6 7 5 10 14 10 3 4 6 5 10 11 11 10 12 9 10 11 13 12 10 11 10 10 14 15 15 16 14 13 17 21 19 19
7 8 9 9 7 6 6 4 6 6 8 9 11 14 13 6 7 5 6 8 10 13 10 6 7 7 8 9 11 9 8 9 10 12 12 9 9 12 14 18 20 23 21
7 8 8 2 3 0 3 4 4 4 7 8 11 13 16 10 6 7 6 7 8 12 13 10 8 8 8 7 7 8 7 9 9 10 12 11 11 12 14 18 18 20 18
6 8 9 8 8 9 3 2 2 6 6 5 5 12 18 16 7 9 6 6 8 13 12 10 7 5 5 5 7 5 5 8 8 9 10 12 10 11 14 19 16 15 18
9 10 10 9 8 7 6 2 4 5 10 5 9 13 14 17 14 6 8 8 6 8 9 9 8 6 6 6 4 5 5 5 7 9 11 12 13 12 12 15 16 20 20
10 10 11 11 11 9 7 5 5 4 5 5 4 6 12 13 13 10 6 6 6 5 7 9 7 6 4 4 5 5 4 5 5 6 6 12 15 14 14 14 15 18 20
13 12 11 10 13 12 8 7 6 5 6 6 6 4 8 10 12 9 9 8 6 5 5 6 9 4 5 6 6 5 5 5 5 5 6 7 12 14 16 15 16 16 20
13 13 12 13 12 9 8 8 8 7 7 6 4 5 7 7 13 13 9 6 9 10 12 7 5 9 3 6 4 1 1 3 5 5 6 5 7 12 14 14 13 12 14
11 11 12 11 12 9 8 7 5 7 4 8 6 6 7 7 10 10 11 11 12 9 9 11 7 3 3 9 4 2 3 2 3 4 4 6 9 7 8 12 13 13 12
11 10 11 10 9 8 11 8 8 9 8 7 10 10 10 13 12 11 13 14 11 7 6 10 9 9 9 5 9 5 3 5 2 3 8 7 7 6 7 9 12 14 14
9 10 12 11 9 10 12 9 10 5 7 8 10 10 12 14 14 12 12 14 12 11 12 9 9 9 6 9 2 5 3 5 4 1 2 6 6 8 8 7 7 13 14
11 10 10 10 10 11 11 11 9 10 8 8 8 14 15 14 14 13 12 13 14 8 11 14 12 12 8 8 9 9 7 3 2 3 3 3 4 4 7 7 7 8 14
12 12 10 11 9 10 10 10 10 12 13 11 12 11 10 11 12 13 12 11 13 12 11 11 12 11 11 11 8 8 11 12 11 3 2 3 7 4 7 7 8 8 13
Wind_Direction
120 143 137 129 129 133 135 134 132 131 130 126 123 120 115 116 115 115 114 117 119 123 129 134 136 138 136 126 114 100 98 106 109 114 119 120 120 121 121 120 113 115 121
134 155 142 137 137 140 140 142 140 137 137 136 133 129 126 123 121 121 124 121 116 121 128 134 136 141 145 143 113 96 97 112 112 115 116 116 119 121 127 119 125 129 131
134 145 153 140 139 142 146 149 145 143 144 142 140 138 137 135 132 129 130 134 131 129 136 142 147 150 150 128 117 123 115 112 131 139 138 131 123 130 124 132 135 136 135
145 145 144 148 142 143 147 149 150 151 149 148 148 147 145 145 145 145 144 144 143 141 144 154 162 164 156 155 164 160 143 133 160 168 168 148 147 128 124 138 141 139 141
144 153 152 155 146 143 146 151 156 156 153 152 154 156 155 154 154 155 158 158 158 162 156 162 173 176 173 182 183 168 155 154 197 215 30 350 149 136 132 142 148 147 152
158 155 155 154 151 144 150 156 159 159 159 160 161 161 161 160 160 161 165 167 171 167 150 161 162 171 186 194 190 176 166 174 197 46 69 68 57 162 148 147 151 153 157
121 138 154 150 153 151 154 162 164 166 166 167 165 165 165 165 164 167 171 175 177 176 169 172 172 177 178 192 200 188 163 187 129 93 94 93 71 212 186 161 155 165 168
126 135 142 147 153 154 159 168 172 171 169 170 170 172 169 170 171 175 177 182 183 183 180 180 186 183 183 192 202 192 162 195 143 119 137 13 156 212 204 167 160 174 174
123 130 137 142 156 164 170 175 175 174 174 173 175 176 177 178 178 180 183 186 189 192 191 190 191 190 191 194 196 200 190 209 156 152 166 218 185 290 241 173 168 174 182
140 145 150 147 146 160 176 179 178 179 180 178 179 181 182 185 185 187 188 192 195 197 199 195 196 194 192 197 205 206 204 205 238 196 216 188 205 212 205 175 175 176 185
159 162 157 154 158 164 169 183 181 183 181 180 182 183 182 179 189 190 191 198 201 204 205 204 196 196 197 199 207 212 205 199 218 224 204 188 190 191 185 177 181 180 182
198 182 167 163 166 162 174 170 181 183 175 175 173 180 178 179 184 192 192 200 204 208 207 205 201 195 197 203 212 210 203 209 212 179 160 175 172 177 193 184 188 191 189
214 179 162 166 169 165 175 168 178 179 174 191 182 185 190 187 186 193 192 199 196 205 194 198 198 190 189 205 211 202 204 203 196 164 160 176 185 204 194 189 191 196 189
311 162 157 158 169 172 172 169 173 171 182 190 200 183 195 197 187 192 190 189 184 186 188 185 188 196 201 206 210 192 200 201 167 171 176 207 212 213 199 185 192 189 180
327 181 179 170 173 182 189 163 180 189 187 187 194 199 191 205 202 184 191 191 187 184 191 187 185 191 204 212 214 185 189 199 179 158 175 200 206 195 202 196 194 190 180
63 54 46 53 64 45 228 254 246 219 206 189 191 205 198 196 207 205 196 185 189 187 189 194 190 196 202 198 215 187 182 182 187 152 162 187 207 207 207 202 197 197 186
66 68 66 69 45 42 4 4 299 298 262 200 204 213 206 204 196 210 200 201 191 192 186 193 196 191 186 189 202 197 172 179 173 172 178 178 196 206 220 217 205 196 188
76 55 49 53 51 49 50 54 308 234 253 228 227 199 200 204 208 199 211 208 190 190 189 194 197 193 193 180 183 194 185 182 175 180 174 173 191 202 202 216 209 175 179
70 69 51 35 27 21 14 341 303 278 274 289 252 217 219 205 207 215 212 212 187 170 193 192 196 182 180 177 177 181 190 189 190 181 188 176 185 188 191 202 205 193 195
64 49 43 40 28 14 5 360 356 352 355 339 305 224 214 229 218 209 218 215 199 185 179 191 193 185 181 171 172 183 188 194 185 187 190 184 175 183 188 201 210 215 216
64 56 41 35 24 27 7 356 347 337 324 314 314 308 321 275 225 208 211 217 223 217 210 177 175 187 175 167 121 128 293 219 205 199 182 191 180 189 192 195 205 217 227
68 59 47 39 22 14 16 355 349 344 331 319 318 323 295 283 291 236 221 213 209 209 224 194 173 160 180 171 153 140 174 307 239 197 207 201 199 183 190 192 195 208 220
62 55 52 38 23 24 12 359 353 339 340 342 338 333 335 332 327 322 257 226 226 210 217 237 206 170 203 191 174 150 150 212 151 190 213 207 202 193 190 188 196 203 212
62 56 51 37 27 20 13 3 355 340 326 323 317 315 316 315 314 316 311 279 230 225 208 195 250 211 184 198 160 197 161 148 168 189 243 213 201 202 191 192 192 203 210
52 46 45 36 26 15 8 359 347 334 321 315 311 311 313 309 307 307 310 313 269 232 212 199 205 204 199 201 207 198 208 160 174 139 176 206 216 210 200 194 193 195 204
46 39 38 27 18 6 359 348 344 333 322 317 312 305 299 301 303 302 299 300 304 252 215 203 203 206 203 221 211 216 209 206 214 171 139 160 204 231 208 200 195 195 197